Location: Unspecified
(0.0000°N, 0.0000°E)
Time: 15:56:50
(UTC+02:00)

Ariane H10-3 - Visible Passes

Search period start: 23 April 2014 00:00
Search period end: 03 May 2014 00:00
Orbit: 263 x 22669 km, 7.3° (Epoch: 22 April)

Date Brightness Start Highest point End Pass type
(mag) Time Alt. Az. Time Alt. Az. Time Alt. Az.
23 Apr 8.5 02:08:15 10° W 02:33:17 22° W 02:33:17 22° W visible
23 Apr 7.7 16:48:37 10° W 21:44:07 88° NNE 22:19:25 43° E visible
24 Apr 7.7 19:47:09 10° W 00:40:45 66° WSW 00:40:45 66° WSW visible
25 Apr 8.4 14:44:07 10° W 15:27:52 79° N 20:24:48 10° E visible
26 Apr 8.7 02:58:01 10° W 03:02:04 13° W 03:02:04 13° W visible
26 Apr 7.6 17:21:45 10° W 22:28:19 88° S 22:47:53 55° ESE visible
27 Apr 7.8 20:35:15 10° W 01:08:53 53° WSW 01:08:53 53° WSW visible
28 Apr 8.2 15:14:22 10° W 16:27:43 80° N 20:54:39 14° E visible
29 Apr 7.4 17:54:54 10° W 23:05:39 85° S 23:15:24 68° ESE visible
30 Apr 8.0 21:42:22 10° W 01:36:03 40° W 01:36:03 40° W visible
01 May 8.0 15:43:59 10° W 19:39:22 85° NNE 21:21:33 22° E visible
02 May 7.4 18:28:27 10° W 23:38:59 81° S 23:41:58 78° SSE visible
